TimeEST,TemperatureF,Dew PointF,Humidity,Sea Level PressureIn,VisibilityMPH,Wind Direction,Wind SpeedMPH,Gust SpeedMPH,PrecipitationIn,Events,Conditions,WindDirDegrees,DateUTC
12:20 AM,48.2,39.2,71,29.65,10.0,WSW,21.9,33.4,N/A,,Mostly Cloudy,250,2013-11-18 05:20:00
12:39 AM,46.4,39.2,76,29.66,10.0,WSW,16.1,32.2,N/A,,Scattered Clouds,240,2013-11-18 05:39:00
12:52 AM,46.0,39.0,76,29.67,10.0,WSW,18.4,31.1,N/A,,Scattered Clouds,240,2013-11-18 05:52:00
1:13 AM,46.4,39.2,76,29.68,10.0,WSW,20.7,27.6,N/A,,Mostly Cloudy,240,2013-11-18 06:13:00
1:52 AM,46.0,39.0,76,29.70,10.0,WSW,16.1,27.6,N/A,,Overcast,240,2013-11-18 06:52:00
2:52 AM,46.0,39.0,76,29.73,10.0,WSW,16.1,24.2,N/A,,Overcast,240,2013-11-18 07:52:00
3:52 AM,45.0,37.9,76,29.73,10.0,WSW,11.5,23.0,N/A,,Mostly Cloudy,240,2013-11-18 08:52:00
4:43 AM,44.6,37.4,76,29.75,10.0,WSW,18.4,29.9,N/A,,Scattered Clouds,240,2013-11-18 09:43:00
4:52 AM,44.1,37.0,76,29.76,10.0,WSW,17.3,29.9,N/A,,Scattered Clouds,240,2013-11-18 09:52:00
5:52 AM,41.0,36.0,82,29.78,10.0,WSW,16.1,24.2,N/A,,Clear,240,2013-11-18 10:52:00
6:52 AM,39.9,36.0,86,29.79,10.0,WSW,15.0,24.2,N/A,,Clear,240,2013-11-18 11:52:00
7:52 AM,39.9,35.1,83,29.81,10.0,WSW,15.0,24.2,N/A,,Clear,240,2013-11-18 12:52:00
8:52 AM,42.1,36.0,79,29.82,10.0,WSW,16.1,25.3,N/A,,Clear,240,2013-11-18 13:52:00
9:52 AM,43.0,36.0,76,29.83,10.0,WSW,21.9,29.9,N/A,,Mostly Cloudy,240,2013-11-18 14:52:00
10:52 AM,43.0,34.0,71,29.86,10.0,West,17.3,26.5,N/A,,Mostly Cloudy,260,2013-11-18 15:52:00
11:24 AM,42.8,33.8,70,29.84,10.0,West,16.1,29.9,N/A,,Mostly Cloudy,260,2013-11-18 16:24:00
11:34 AM,46.4,35.6,66,29.84,10.0,West,11.5,26.5,N/A,,Mostly Cloudy,260,2013-11-18 16:34:00
11:52 AM,44.1,35.1,71,29.86,10.0,West,16.1,25.3,N/A,,Overcast,260,2013-11-18 16:52:00
12:19 PM,42.8,33.8,70,29.84,10.0,West,19.6,31.1,N/A,,Scattered Clouds,260,2013-11-18 17:19:00
12:52 PM,45.0,33.1,63,29.86,10.0,West,21.9,35.7,N/A,,Scattered Clouds,260,2013-11-18 17:52:00
1:52 PM,45.0,32.0,60,29.89,10.0,West,20.7,29.9,N/A,,Mostly Cloudy,270,2013-11-18 18:52:00
2:52 PM,43.0,30.9,62,29.92,10.0,West,19.6,29.9,N/A,,Overcast,270,2013-11-18 19:52:00
3:52 PM,41.0,28.9,62,29.96,10.0,West,18.4,28.8,N/A,,Overcast,260,2013-11-18 20:52:00
4:52 PM,39.9,28.9,65,29.99,10.0,West,16.1,26.5,N/A,,Overcast,260,2013-11-18 21:52:00
5:52 PM,39.0,28.9,67,30.03,10.0,West,11.5,24.2,N/A,,Overcast,270,2013-11-18 22:52:00
6:52 PM,37.0,28.0,70,30.05,10.0,WNW,12.7,20.7,N/A,,Overcast,290,2013-11-18 23:52:00
7:52 PM,37.0,27.0,67,30.07,10.0,West,12.7,21.9,N/A,,Overcast,270,2013-11-19 00:52:00
8:52 PM,37.0,26.1,65,30.09,10.0,West,10.4,24.2,N/A,,Overcast,280,2013-11-19 01:52:00
9:34 PM,35.6,28.4,75,30.08,10.0,NW,12.7,20.7,N/A,,Overcast,310,2013-11-19 02:34:00
9:52 PM,36.0,26.1,67,30.11,10.0,WNW,13.8,23.0,N/A,,Overcast,300,2013-11-19 02:52:00
10:52 PM,35.1,24.1,64,30.13,10.0,WNW,9.2,18.4,N/A,,Overcast,290,2013-11-19 03:52:00
11:52 PM,34.0,24.1,67,30.14,10.0,NW,12.7,-,N/A,,Overcast,320,2013-11-19 04:52:00